Weather History for St. James, MN

Change the Weather History Date:

Sunday, June 16, 2013

  Actual Average Record
Temperature  
Mean Temperature 72 °F -  
Max Temperature 87 °F 78 °F 95 °F (1959)
Min Temperature 57 °F 55 °F 37 °F (2014)
Cooling Degree Days 7    
Growing Degree Days 22 (Base 50)    
Moisture  
Dew Point 49 °F    
Average Humidity 46    
Maximum Humidity 88    
Minimum Humidity 17    
Precipitation  
Precipitation 0.00 in - - ()
Sea Level Pressure  
Sea Level Pressure 29.94 in    
Wind  
Wind Speed 3 mph (West)    
Max Wind Speed 17 mph    
Max Gust Speed 21 mph    
Visibility 10 miles    
Events      
Averages and records for this station are not official NWS values.
T = Trace of Precipitation, MM = Missing Value Source: NWS Daily Summary

Daily Weather History Graph

Daily Weather History Graph

Search for Another Location

Airport:

Trip Planner

Search our weather history database for the weather conditions in past years. The results will help you decide how hot, cold, wet, or windy it might be!

Date:

Astronomy

Jun. 16, 2013 Rise Set
Actual Time 5:34 AM CDT 9:03 PM CDT
Civil Twilight 4:58 AM CDT 9:39 PM CDT
Nautical Twilight 4:10 AM CDT 10:27 PM CDT
Astronomical Twilight 3:10 AM CDT 11:28 PM CDT
Moon 1:26 PM CDT (6/16) 12:54 AM CDT (6/16)
Length of Visible Light 16h 41m
Length of Day
15h 28m
Waxing Crescent, 50% of the Moon is Illuminated
Jun 16
Waxing Crescent
Jun 16
First Quarter
Jun 23
Full
Jun 29
Last Quarter
Jul 8
New

Hourly Weather History & Observations

Time (CDT) Temp. Dew Point Humidity Pressure Visibility Wind Dir Wind Speed Gust Speed Precip Events Conditions
12:15 AM 62.6 °F 59.0 °F 88% 29.94 in 10.0 mi Calm Calm - N/A   Clear
12:35 AM 66.2 °F 57.2 °F 73% 29.94 in 10.0 mi Calm Calm - N/A   Clear
12:54 AM 66.2 °F 57.2 °F 73% 29.94 in 10.0 mi Calm Calm - N/A   Clear
1:15 AM 64.4 °F 57.2 °F 77% 29.94 in 10.0 mi Calm Calm - N/A   Clear
1:35 AM 64.4 °F 57.2 °F 77% 29.94 in 10.0 mi Calm Calm - N/A   Clear
1:55 AM 62.6 °F 55.4 °F 77% 29.94 in 10.0 mi Calm Calm - N/A   Clear
2:15 AM 62.6 °F 55.4 °F 77% 29.93 in 10.0 mi Calm Calm - N/A   Clear
2:34 AM 62.6 °F 55.4 °F 77% 29.94 in 10.0 mi Calm Calm - N/A   Clear
2:55 AM 62.6 °F 55.4 °F 77% 29.94 in 10.0 mi Calm Calm - N/A   Clear
3:15 AM 60.8 °F 53.6 °F 77% 29.94 in 10.0 mi Calm Calm - N/A   Clear
3:35 AM 60.8 °F 53.6 °F 77% 29.94 in 10.0 mi Calm Calm - N/A   Clear
3:55 AM 60.8 °F 53.6 °F 77% 29.95 in 10.0 mi Calm Calm - N/A   Clear
4:15 AM 59.0 °F 51.8 °F 77% 29.95 in 10.0 mi Calm Calm - N/A   Clear
4:35 AM 60.8 °F 51.8 °F 72% 29.95 in 10.0 mi Calm Calm - N/A   Clear
4:55 AM 59.0 °F 51.8 °F 77% 29.94 in 10.0 mi Calm Calm - N/A   Clear
5:15 AM 59.0 °F 51.8 °F 77% 29.95 in 10.0 mi Calm Calm - N/A   Clear
5:35 AM 57.2 °F 51.8 °F 82% 29.96 in 10.0 mi Calm Calm - N/A   Clear
5:55 AM 57.2 °F 51.8 °F 82% 29.96 in 10.0 mi Calm Calm - N/A   Clear
6:14 AM 59.0 °F 51.8 °F 77% 29.97 in 10.0 mi Calm Calm - N/A   Clear
6:35 AM 60.8 °F 51.8 °F 72% 29.97 in 10.0 mi Calm Calm - N/A   Clear
6:55 AM 60.8 °F 55.4 °F 82% 29.97 in 10.0 mi Calm Calm - N/A   Clear
7:15 AM 64.4 °F 55.4 °F 73% 29.97 in 10.0 mi Calm Calm - N/A   Clear
7:35 AM 66.2 °F 55.4 °F 68% 29.96 in 10.0 mi Calm Calm - N/A   Clear
7:55 AM 69.8 °F 55.4 °F 60% 29.97 in 10.0 mi Calm Calm - N/A   Clear
8:15 AM 71.6 °F 53.6 °F 53% 29.96 in 10.0 mi Calm Calm - N/A   Clear
8:35 AM 71.6 °F 51.8 °F 50% 29.97 in 10.0 mi Calm Calm - N/A   Clear
8:55 AM 73.4 °F 53.6 °F 50% 29.97 in 10.0 mi Calm Calm - N/A   Clear
9:15 AM 75.2 °F 51.8 °F 44% 29.97 in 10.0 mi Calm Calm - N/A   Clear
9:35 AM 75.2 °F 53.6 °F 47% 29.98 in 10.0 mi Calm Calm - N/A   Clear
9:55 AM 77.0 °F 53.6 °F 44% 29.98 in 10.0 mi Calm Calm - N/A   Clear
10:15 AM 78.8 °F 51.8 °F 39% 29.97 in 10.0 mi Calm Calm - N/A   Clear
10:35 AM 78.8 °F 51.8 °F 39% 29.97 in 10.0 mi Calm Calm - N/A   Clear
10:55 AM 80.6 °F 46.4 °F 30% 29.97 in 10.0 mi WNW 5.8 mph - N/A   Clear
11:14 AM 80.6 °F 46.4 °F 30% 29.96 in 10.0 mi Calm Calm - N/A   Clear
11:35 AM 80.6 °F 44.6 °F 28% 29.96 in 10.0 mi West 4.6 mph - N/A   Clear
11:55 AM 82.4 °F 44.6 °F 26% 29.96 in 10.0 mi WNW 6.9 mph - N/A   Clear
12:14 PM 82.4 °F 44.6 °F 26% 29.96 in 10.0 mi WNW 9.2 mph 18.4 mph N/A   Clear
12:35 PM 82.4 °F 44.6 °F 26% 29.95 in 10.0 mi WNW 5.8 mph - N/A   Clear
12:55 PM 82.4 °F 44.6 °F 26% 29.96 in 10.0 mi West 10.4 mph - N/A   Clear
1:15 PM 84.2 °F 44.6 °F 25% 29.96 in 10.0 mi Calm Calm - N/A   Clear
1:34 PM 84.2 °F 42.8 °F 23% 29.95 in 10.0 mi Calm Calm - N/A   Clear
1:55 PM 86.0 °F 44.6 °F 23% 29.95 in 10.0 mi WNW 12.7 mph 19.6 mph N/A   Clear
2:15 PM 84.2 °F 39.2 °F 20% 29.96 in 10.0 mi WNW 10.4 mph 17.3 mph N/A   Clear
2:35 PM 86.0 °F 39.2 °F 19% 29.95 in 10.0 mi West 15.0 mph 18.4 mph N/A   Clear
2:55 PM 87.8 °F 37.4 °F 17% 29.95 in 10.0 mi West 12.7 mph 20.7 mph N/A   Clear
3:15 PM 87.8 °F 39.2 °F 18% 29.94 in 10.0 mi WNW 16.1 mph 20.7 mph N/A   Clear
3:34 PM 87.8 °F 39.2 °F 18% 29.94 in 10.0 mi West 13.8 mph 19.6 mph N/A   Clear
3:55 PM 87.8 °F 39.2 °F 18% 29.93 in 10.0 mi West 12.7 mph 19.6 mph N/A   Clear
4:15 PM 87.8 °F 39.2 °F 18% 29.94 in 10.0 mi West 13.8 mph - N/A   Clear
4:34 PM 87.8 °F 39.2 °F 18% 29.93 in 10.0 mi West 13.8 mph - N/A   Clear
4:54 PM 86.0 °F 39.2 °F 19% 29.92 in 10.0 mi West 10.4 mph - N/A   Clear
5:15 PM 86.0 °F 41.0 °F 20% 29.92 in 10.0 mi West 6.9 mph - N/A   Clear
5:34 PM 86.0 °F 41.0 °F 20% 29.91 in 10.0 mi WNW 11.5 mph - N/A   Clear
5:55 PM 84.2 °F 39.2 °F 20% 29.91 in 10.0 mi West 13.8 mph - N/A   Clear
6:15 PM 86.0 °F 39.2 °F 19% 29.91 in 10.0 mi West 11.5 mph 17.3 mph N/A   Clear
6:34 PM 86.0 °F 39.2 °F 19% 29.90 in 10.0 mi West 6.9 mph - N/A   Clear
6:55 PM 84.2 °F 37.4 °F 19% 29.90 in 10.0 mi WSW 4.6 mph 17.3 mph N/A   Clear
7:15 PM 84.2 °F 46.4 °F 27% 29.90 in 10.0 mi WSW 16.1 mph - N/A   Clear
7:34 PM 84.2 °F 44.6 °F 25% 29.90 in 10.0 mi WSW 17.3 mph - N/A   Clear
7:55 PM 82.4 °F 46.4 °F 28% 29.90 in 10.0 mi WSW 10.4 mph - N/A   Clear
8:15 PM 80.6 °F 48.2 °F 32% 29.90 in 10.0 mi WSW 9.2 mph - N/A   Clear
8:34 PM 80.6 °F 48.2 °F 32% 29.91 in 10.0 mi WSW 8.1 mph - N/A   Clear
8:55 PM 78.8 °F 48.2 °F 34% 29.92 in 10.0 mi WSW 3.5 mph - N/A   Clear
9:15 PM 75.2 °F 48.2 °F 38% 29.93 in 10.0 mi Calm Calm - N/A   Clear
9:35 PM 75.2 °F 50.0 °F 41% 29.93 in 10.0 mi Calm Calm - N/A   Clear
9:55 PM 73.4 °F 51.8 °F 47% 29.93 in 10.0 mi Calm Calm - N/A   Clear
10:15 PM 71.6 °F 51.8 °F 50% 29.93 in 10.0 mi Calm Calm - N/A   Clear
10:35 PM 71.6 °F 51.8 °F 50% 29.92 in 10.0 mi SW 4.6 mph - N/A   Clear
10:54 PM 73.4 °F 51.8 °F 47% 29.92 in 10.0 mi SW 9.2 mph - N/A   Clear
11:15 PM 71.6 °F 51.8 °F 50% 29.93 in 10.0 mi SW 10.4 mph - N/A   Clear
11:35 PM 71.6 °F 51.8 °F 50% 29.93 in 10.0 mi Calm Calm - N/A   Clear
11:55 PM 69.8 °F 51.8 °F 53% 29.94 in 10.0 mi SW 9.2 mph - N/A   Clear